Regional Weather Roundup
Issued by NWS

Home | Current Version | Previous Version | Text Only | Print | Product List | Glossary Off
Versions: 1 2 3 4 5 6 7 8 9 10 11 12 13 14 15 16 17 18 19 20 21 22 23 24 25 26 27 28 29 30 31 32 33 34 35 36 37 38 39 40 41 42 43 44 45 46 47 48 49 50

000
ASUS43 KFSD 151202
RWRSD

WEATHER ROUNDUP FOR SOUTH DAKOTA
NATIONAL WEATHER SERVICE SIOUX FALLS SD
700 AM CDT TUE APR 15 2014

NOTE: "FAIR" INDICATES FEW OR NO CLOUDS BELOW 12,000 FEET WITH NO
SIGNIFICANT WEATHER AND/OR OBSTRUCTIONS TO VISIBILITY.


SDZ001>005-009-010-012>017-151300-
NORTHWEST AND NORTH CENTRAL SOUTH DAKOTA

CITY           SKY/WX    TMP DP  RH WIND       PRES   REMARKS
BUFFALO          N/A     21  13  71 SE13      29.74F WCI   9
FAITH            N/A     20  13  74 SE21      29.88F WCI   4
MOBRIDGE       CLEAR     20  11  68 SE14      30.01F WCI   7
$$

SDZ012>016-024>037-041>051-057-063-072>074-151300-
SOUTHWEST AND SOUTH CENTRAL SOUTH DAKOTA

CITY           SKY/WX    TMP DP  RH WIND       PRES   REMARKS
RAPID CTY ARPT CLEAR     19  12  74 E3        29.83F
PIERRE         CLEAR     21  17  84 SE10      30.02F WCI  10
CUSTER         CLEAR     28  12  51 W9        29.82F WCI  19
ELLSWORTH AFB  CLEAR     23  13  66 S6        29.82F WCI  16
PHILIP         CLEAR     18  11  74 E7        29.92F WCI   9
PINE RIDGE     CLEAR     28  19  69 CALM      29.89F
WINNER         FAIR      23  11  60 SE10      30.02F WCI  12
$$

SDZ004>011-016>023-039-040-151300-
NORTHEAST SOUTH DAKOTA

CITY           SKY/WX    TMP DP  RH WIND       PRES   REMARKS
ABERDEEN       CLEAR     10   8  92 E3        30.13F
WATERTOWN      CLEAR     14  10  84 SE3       30.12F
SISSETON         N/A     14  11  87 CALM      30.16S
$$

SDZ017-020-022-023-036>040-048>070-151300-
SOUTHEAST SOUTH DAKOTA

CITY           SKY/WX    TMP DP  RH WIND       PRES   REMARKS
SIOUX FALLS    CLEAR     12   9  87 CALM      30.15F
HURON          CLEAR     17  13  84 S7        30.13F WCI   8
CHAMBERLAIN      N/A     21  17  84 SE12      30.08F WCI   9
MITCHELL       CLEAR     19  16  88 SE8       30.15F WCI   9
YANKTON        CLEAR     18  16  93 E5        30.17S WCI  11
$$

ABBREVIATIONS USED IN REMARKS
   TC - TEMPERATURE IN CELSIUS
  WCI - WIND CHILL INDEX
   HX - HEAT INDEX
  VSB - VISIBILITY




USA.gov is the U.S. government's official web portal to all federal, state and local government web resources and services.